Location: Street
(51.1247°N, 2.7429°W)
Time: 07:33:31
(UTC+01:00)

X-37B - Pass Details

Date: 09 August 2021
Orbit: 381 x 393 km, 45.0° (Epoch: 29 August)

Event Time Altitude Azimuth Distance (km) Brightness Sun altitude
Exits shadow 04:46:15 13° 239° (WSW) 1,226 2.4 -9.0°
Maximum altitude 04:48:22 25° 188° (S) 826 1.8 -8.7°
Drops below altitude 10° 04:51:00 10° 131° (SE) 1,396 3.5 -8.4°
Sets 04:53:16 0° 117° (ESE) 2,248 4.8 -8.1°
